RH
26 18 15 13 10 8 8 8 8 7 7 8 8 7 7 11 16 16 10 5 14 17 18 26 39 54 61 66 72 69 85 86 68 63 61 45 49 50 51 61 56 60 66 67 70
25 23 17 15 13 8 6 6 6 7 7 7 7 7 7 9 12 14 10 5 9 11 18 35 43 61 62 66 68 77 93 75 76 77 69 43 45 49 54 54 66 63 71 70 78
22 22 19 16 19 19 17 16 12 8 6 6 7 7 8 9 14 24 19 7 11 11 18 32 52 54 56 66 68 76 89 72 69 73 76 77 50 46 52 56 66 70 68 71 75
19 18 18 18 17 26 28 29 29 24 15 7 7 8 9 11 26 23 18 8 8 10 17 34 51 50 54 66 66 79 79 84 76 77 81 72 66 44 44 49 53 60 62 71 69
23 22 20 18 17 20 26 25 26 27 20 17 10 9 10 12 16 21 23 13 10 10 21 36 49 51 50 58 66 73 77 82 82 84 81 73 65 51 47 49 52 59 64 67 66
23 23 22 21 17 16 22 24 24 24 24 16 17 14 13 18 26 26 26 16 13 8 10 20 49 45 39 49 58 69 80 79 82 82 84 70 60 61 52 52 54 62 69 70 65
24 23 23 21 18 14 18 21 23 22 24 22 17 17 15 13 26 33 31 25 13 8 9 22 39 35 30 50 75 83 85 81 87 88 86 71 73 61 52 53 61 63 67 72 67
24 23 22 20 18 14 14 19 22 24 27 25 22 37 16 13 21 22 25 24 7 8 10 19 26 28 26 56 68 70 90 86 92 90 76 76 76 62 50 52 63 62 67 69 65
22 22 21 19 15 11 12 18 26 29 28 28 28 29 20 23 17 21 22 24 6 9 9 18 20 22 30 63 84 83 95 93 89 92 88 80 76 60 48 47 48 48 53 61 66
19 19 18 15 11 8 14 24 28 34 35 35 38 35 20 22 17 15 20 26 11 12 13 14 16 24 29 46 66 87 96 88 94 90 94 82 77 63 48 46 44 45 50 60 65
17 14 13 10 7 10 20 20 25 28 30 24 23 26 20 18 18 16 17 22 20 12 20 21 26 29 22 28 49 69 80 92 91 86 95 92 93 83 73 60 50 46 50 60 60
18 22 18 9 6 19 20 21 24 27 26 21 22 23 16 19 20 18 21 20 20 22 22 26 29 22 21 42 63 77 80 89 85 86 91 94 92 92 87 77 66 65 45 55 58
24 15 8 6 8 18 21 26 24 22 28 22 22 21 14 14 15 15 15 18 21 24 22 28 22 20 51 65 70 71 73 87 83 87 84 90 89 94 87 77 71 65 56 52 54
22 11 6 14 20 23 21 22 23 20 42 27 14 16 15 13 14 15 14 13 15 24 24 22 18 19 65 65 64 77 62 68 88 82 87 86 91 91 90 82 73 64 65 53 56
21 11 7 22 22 19 23 20 22 20 39 20 18 14 13 14 14 14 15 14 16 17 15 19 14 18 23 60 54 58 62 70 74 87 80 88 97 82 87 88 79 63 59 56 58
18 12 6 18 18 21 21 23 22 38 38 28 16 14 16 16 15 15 15 14 13 16 17 18 13 12 16 32 50 59 69 74 76 84 89 74 96 87 93 82 67 55 54 61 50
17 16 13 21 19 21 24 26 40 43 27 25 22 15 17 18 17 17 17 17 19 22 25 21 17 52 54 73 66 69 75 94 89 89 83 80 85 78 61 58 52 48 53 57 54
18 21 22 21 19 22 24 38 42 32 34 22 21 18 20 21 18 16 19 22 16 19 24 26 43 54 46 60 76 69 63 86 88 88 73 84 85 70 48 50 47 45 44 51 65
17 21 18 14 19 22 26 50 29 20 16 21 23 30 30 26 21 20 18 20 19 18 21 29 27 18 43 52 51 66 67 49 64 62 72 80 70 54 55 56 55 50 45 50 61
19 20 20 20 23 24 41 48 40 15 15 19 28 27 30 28 26 26 27 24 24 18 20 24 29 24 23 48 51 53 48 61 64 71 70 70 71 66 69 67 66 64 49 55 56
17 20 25 23 25 28 43 44 31 14 13 17 22 26 26 26 26 31 32 24 24 18 24 26 32 28 23 25 56 29 30 35 49 59 60 68 62 56 65 68 68 63 54 54 57
17 25 26 26 27 44 42 36 15 14 14 18 18 20 21 30 32 30 30 24 21 24 23 26 39 36 27 25 28 24 22 27 34 28 45 49 32 66 77 79 68 63 54 51 46
22 21 26 25 39 34 30 24 15 14 15 16 19 19 27 34 30 34 32 23 21 22 20 21 42 62 48 33 28 36 31 29 31 31 28 26 28 82 88 97 87 62 61 50 48
26 38 30 30 28 24 23 22 17 13 14 14 15 15 19 24 38 34 34 27 22 22 20 24 43 50 62 38 34 37 33 31 32 45 38 29 73 92 82 94 87 93 74 61 59
33 39 43 56 47 34 20 16 17 16 14 14 16 17 15 32 35 37 29 27 22 22 25 24 31 33 37 46 29 30 53 60 60 60 37 78 94 96 94 93 95 85 85 79 77
47 62 54 52 47 46 29 17 16 15 14 14 16 17 26 29 34 30 25 20 27 30 38 45 37 41 33 33 33 59 60 64 72 81 88 92 94 90 93 95 97 98 80 58 70
52 62 64 51 55 48 39 23 16 20 18 13 15 16 21 19 17 18 24 42 48 41 47 52 50 50 40 40 36 50 69 75 76 87 86 87 85 87 93 97 100 100 98 89 97
Wind_Speed
14 14 14 13 12 10 9 8 7 5 5 5 6 6 7 7 8 10 10 4 10 10 12 11 14 10 5 1 1 4 4 1 3 8 2 12 11 15 5 24 14 2 27 31 28
14 15 15 14 13 12 10 9 8 7 7 5 5 6 7 7 8 11 4 7 12 9 13 13 12 10 2 1 2 4 2 2 4 2 3 14 20 20 13 17 19 23 26 29 30
14 15 15 15 14 13 12 11 10 9 7 6 5 5 6 5 4 2 1 10 14 12 15 13 13 8 4 5 4 2 5 4 5 3 4 4 7 19 27 12 29 33 34 32 30
13 14 15 15 14 13 12 12 11 11 9 6 5 5 5 2 4 3 4 8 17 15 15 14 10 4 3 4 8 5 4 9 2 1 3 2 10 6 27 13 34 34 38 37 35
12 13 14 16 15 12 12 12 11 10 9 7 5 5 5 3 2 3 3 8 15 16 17 17 10 5 2 2 8 3 9 9 4 8 6 9 9 5 13 30 33 34 33 36 36
11 12 14 15 15 13 12 12 12 10 9 8 6 5 3 2 4 4 6 3 12 17 19 17 8 6 6 6 2 8 8 5 1 6 10 7 6 12 15 33 37 38 37 37 37
11 12 13 14 15 14 12 12 12 9 8 9 7 5 5 3 3 1 1 2 4 14 16 18 11 4 8 1 5 17 7 7 7 2 6 10 4 9 30 36 38 36 35 32 38
11 12 13 14 14 13 12 11 11 9 8 7 6 9 4 9 4 5 3 2 4 9 13 9 9 7 3 8 6 2 6 3 6 9 7 9 4 13 36 33 31 29 30 33 36
11 12 13 14 14 11 10 11 12 8 7 7 7 8 2 5 8 8 3 2 4 7 7 9 3 4 3 3 4 6 6 4 2 8 5 3 5 14 27 31 31 29 29 35 31
12 13 13 13 12 8 7 10 8 6 6 7 5 5 4 8 3 7 9 6 2 3 4 4 4 3 3 4 2 4 7 4 3 3 3 4 5 6 18 21 28 29 32 31 34
13 13 14 12 9 3 4 9 10 3 15 7 12 7 8 9 3 6 11 8 5 0 3 2 1 4 5 4 1 5 9 6 2 6 1 3 3 6 3 4 8 23 30 31 36
16 16 14 8 2 4 5 10 10 9 10 10 8 10 8 8 3 6 11 7 4 4 0 5 4 5 2 6 11 8 9 5 3 2 2 7 9 0 5 3 3 1 20 32 33
18 17 10 3 7 3 6 10 15 17 2 8 6 6 1 2 3 2 7 8 3 4 2 4 4 7 5 10 9 2 5 7 5 3 2 4 5 5 5 7 4 5 11 30 37
19 15 6 5 6 2 6 13 14 6 5 6 3 1 2 3 2 7 7 4 3 8 4 4 6 6 9 5 6 5 1 7 12 4 2 2 2 7 11 7 4 11 10 24 40
17 12 2 4 3 3 9 12 14 2 4 3 2 1 2 4 1 6 12 6 4 3 4 7 2 4 6 11 6 3 11 9 4 4 1 4 0 4 8 9 11 12 18 21 39
15 10 2 3 2 4 9 12 5 5 3 6 2 0 1 3 2 3 8 4 4 2 1 8 11 7 7 4 7 14 10 4 3 4 3 5 4 5 7 14 14 15 24 20 36
12 8 1 3 2 5 12 9 5 5 4 6 3 1 1 3 2 3 4 3 3 3 3 5 2 4 18 14 4 6 4 3 4 2 4 0 3 8 13 12 23 22 25 26 33
9 8 5 5 4 7 13 4 7 3 4 5 4 3 4 7 4 2 3 1 1 3 1 1 3 5 8 7 11 9 5 6 2 2 3 2 5 6 10 20 30 32 38 33 30
11 12 0 6 4 5 7 5 5 4 3 4 4 6 4 4 1 3 1 4 1 4 6 3 5 5 6 3 13 5 4 2 7 2 0 3 5 8 5 5 10 19 28 40 36
12 10 2 7 6 4 5 3 3 4 3 4 3 3 2 5 7 4 2 3 3 1 4 1 1 4 2 7 7 5 7 3 2 4 4 3 5 6 2 8 6 16 31 31 39
10 3 0 2 4 2 3 5 5 4 5 3 2 4 1 3 2 3 3 3 3 6 6 1 2 4 1 2 8 2 2 3 4 4 4 1 5 6 7 7 8 7 22 33 35
6 3 2 4 2 2 1 5 4 3 4 5 4 2 4 4 5 5 3 4 11 2 3 3 4 1 3 5 4 7 3 4 4 3 1 3 3 9 10 9 11 5 9 18 41
9 4 1 4 1 3 5 5 3 2 2 2 5 4 2 4 3 3 5 11 10 1 0 2 3 3 7 7 6 6 2 0 3 3 3 4 2 9 10 16 15 9 2 12 16
4 3 3 1 2 3 3 4 3 3 6 8 2 6 4 7 5 4 6 4 12 6 4 4 2 5 5 5 3 4 5 2 5 4 2 4 4 10 12 12 16 17 15 11 11
2 2 2 3 5 6 2 3 3 3 3 4 5 4 4 4 4 5 4 6 5 12 6 4 2 1 4 7 2 2 3 7 6 3 3 3 5 7 5 5 8 13 20 23 17
3 4 3 5 9 6 5 1 4 3 3 1 5 3 3 4 5 3 0 0 1 6 4 6 0 5 4 7 6 4 5 7 5 3 6 5 8 5 7 8 11 8 15 23 20
4 3 3 3 4 3 1 4 6 8 1 7 6 5 3 3 2 1 7 11 5 1 2 3 2 3 3 3 4 6 6 6 2 6 4 4 1 2 10 15 18 12 11 15 20
Wind_Direction
22 21 21 19 17 14 5 356 344 335 322 308 303 297 285 280 275 268 266 207 174 156 157 158 160 160 169 344 49 94 67 234 288 134 93 150 127 144 140 131 138 163 156 155 149
23 21 19 17 17 18 14 5 354 346 335 326 311 304 298 298 280 273 224 183 183 169 159 160 158 170 205 177 178 89 118 149 24 16 17 163 151 138 134 138 116 127 146 157 156
24 22 20 17 16 19 22 18 13 3 352 340 326 308 311 323 306 61 92 188 173 170 171 176 156 154 223 167 190 52 177 229 350 206 27 343 179 147 151 152 152 154 158 160 165
22 20 18 17 13 10 11 11 8 3 359 351 339 324 322 325 147 91 57 164 179 180 178 172 172 156 185 213 168 112 215 183 143 10 68 315 308 193 160 171 166 158 159 168 172
14 12 13 13 9 3 359 355 355 352 354 346 338 335 335 281 222 103 29 161 176 186 186 180 176 183 279 230 114 154 166 180 172 315 306 293 263 158 157 160 164 161 165 171 175
358 359 1 4 4 358 353 351 350 350 354 348 339 332 320 291 132 115 67 124 193 190 193 192 188 195 278 234 155 176 131 167 233 297 293 274 224 222 169 157 161 165 170 172 178
343 346 350 350 355 354 349 350 350 348 341 351 349 331 279 168 93 158 97 359 226 209 195 196 171 333 331 15 119 124 124 154 127 349 291 331 221 181 152 163 164 174 177 175 181
336 335 338 340 345 349 343 348 346 339 336 340 342 335 262 156 170 219 221 277 208 205 205 207 222 281 247 130 76 83 53 24 34 333 248 299 191 163 157 159 167 173 177 183 185
333 330 333 334 337 343 338 339 332 319 320 323 326 336 292 224 231 205 226 259 170 177 171 144 225 237 159 98 55 27 113 70 6 318 285 298 134 170 171 161 172 176 182 188 185
337 331 329 329 330 343 344 342 340 321 324 329 333 331 17 350 214 219 206 196 45 153 142 194 213 92 42 80 217 156 124 129 177 296 237 339 117 125 171 175 171 172 177 178 179
339 332 328 325 330 30 4 3 2 350 320 279 294 283 307 360 160 111 199 198 230 139 135 193 131 195 212 176 87 114 105 117 186 254 270 353 43 153 354 237 179 171 177 173 181
344 337 330 325 39 108 44 24 29 338 311 325 295 278 283 299 292 166 189 186 157 199 233 24 254 218 205 148 122 124 125 131 200 226 231 184 224 175 311 253 128 205 187 178 183
348 346 350 31 135 136 19 25 353 343 254 298 289 273 290 258 213 177 184 202 148 143 160 148 249 143 148 131 128 208 160 179 139 125 340 148 207 215 279 262 257 239 185 182 187
354 355 22 103 120 38 38 351 348 331 55 291 298 308 222 216 291 225 213 156 45 196 159 235 255 165 144 174 156 174 231 134 127 128 244 24 248 240 193 247 234 238 223 187 186
358 357 59 155 132 3 341 341 334 312 52 291 265 135 196 181 314 203 209 208 179 216 106 252 269 161 185 209 140 180 108 113 136 98 200 163 264 263 181 219 250 236 227 192 192
360 4 86 168 203 331 335 333 318 42 22 332 320 91 29 228 233 125 185 217 230 226 274 241 256 172 211 148 125 125 102 54 109 70 325 184 188 206 179 208 233 227 219 204 193
4 14 106 186 257 327 331 332 44 85 348 311 294 249 107 296 44 129 137 151 175 35 344 317 354 67 104 91 52 128 115 53 42 345 238 197 181 241 202 200 208 218 203 206 197
346 337 319 234 214 309 337 51 65 272 275 301 343 60 31 19 342 127 100 259 151 124 189 85 355 188 192 157 173 171 143 138 110 272 263 113 237 260 203 196 204 192 195 200 197
335 336 3 176 215 313 347 51 198 231 240 348 9 55 354 341 74 73 170 192 232 186 173 151 293 297 185 130 132 229 206 190 118 333 239 204 279 292 256 175 200 209 199 193 195
343 341 180 211 230 294 65 244 260 240 4 48 99 173 64 325 23 34 19 297 334 207 188 208 166 270 114 96 279 182 165 76 23 154 232 272 274 247 132 192 215 211 208 192 189
352 5 25 231 245 352 119 238 276 336 59 74 217 19 350 36 356 40 293 286 24 335 85 136 121 261 120 179 189 187 225 58 124 145 170 248 267 316 210 185 190 223 194 181 181
9 18 77 42 32 40 210 199 261 26 24 37 95 70 50 17 55 31 329 335 356 348 18 350 128 27 245 300 311 127 104 144 129 213 197 149 310 341 51 58 92 89 194 192 186
346 304 320 198 127 298 293 279 259 91 9 43 44 42 56 55 63 43 342 322 16 96 56 335 8 26 348 2 353 39 344 315 111 63 186 138 281 13 42 52 57 67 100 224 219
347 9 335 34 318 209 292 258 166 60 67 74 75 75 59 21 18 27 343 334 4 14 356 98 85 146 166 214 253 352 323 52 107 99 201 237 86 36 30 53 49 78 109 125 218
336 299 13 314 321 344 230 301 108 104 70 67 36 74 120 40 25 9 337 330 354 15 3 71 74 258 231 216 237 226 86 48 66 315 125 346 98 17 28 1 30 63 85 90 112
354 359 350 291 304 323 356 260 141 132 111 66 122 137 105 139 159 243 87 348 290 333 42 1 158 0 340 330 73 78 39 78 52 48 79 98 77 9 73 52 36 44 55 69 84
344 287 279 275 332 38 280 281 229 134 85 148 160 122 132 209 231 116 118 85 79 117 60 63 86 58 275 358 130 330 0 64 77 24 140 89 178 41 78 52 34 35 52 59 69